Time,TemperatureF,DewpointF,PressureIn,WindDirection,WindDirectionDegrees,WindSpeedMPH,WindSpeedGustMPH,Humidity,HourlyPrecipIn,Conditions,Clouds,dailyrainin,SoftwareType,DateUTC
2013-03-24 00:00:00,33.3,24.0,29.65,West,275,3.0,12.0,68,0.00,,,0.00,weatherlink.com 1.10,2013-03-24 04:00:00,
2013-03-24 00:15:00,32.7,24.0,29.66,WSW,251,2.0,6.0,70,0.00,,,0.00,weatherlink.com 1.10,2013-03-24 04:15:00,
2013-03-24 00:30:00,32.5,24.0,29.65,NW,311,1.0,9.0,70,0.00,,,0.00,weatherlink.com 1.10,2013-03-24 04:30:00,
2013-03-24 00:45:00,32.6,24.0,29.66,NNW,338,4.0,9.0,70,0.00,,,0.00,weatherlink.com 1.10,2013-03-24 04:45:00,
2013-03-24 01:00:00,32.5,24.0,29.66,NNW,336,1.0,7.0,70,0.00,,,0.00,weatherlink.com 1.10,2013-03-24 05:00:00,
2013-03-24 01:15:00,32.1,23.0,29.66,WNW,282,0.0,7.0,70,0.00,,,0.00,weatherlink.com 1.10,2013-03-24 05:15:00,
2013-03-24 01:30:00,31.9,23.0,29.67,West,266,0.0,7.0,71,0.00,,,0.00,weatherlink.com 1.10,2013-03-24 05:30:00,
2013-03-24 01:45:00,31.4,23.0,29.67,NNW,330,3.0,4.0,72,0.00,,,0.00,weatherlink.com 1.10,2013-03-24 05:45:00,
2013-03-24 02:00:00,31.4,24.0,29.66,NNE,17,4.0,7.0,73,0.00,,,0.00,weatherlink.com 1.10,2013-03-24 06:00:00,
2013-03-24 02:15:00,31.5,23.0,29.67,WNW,300,1.0,7.0,72,0.00,,,0.00,weatherlink.com 1.10,2013-03-24 06:15:00,
2013-03-24 02:30:00,31.5,23.0,29.67,NW,324,2.0,8.0,72,0.00,,,0.00,weatherlink.com 1.10,2013-03-24 06:30:00,
2013-03-24 02:45:00,31.7,24.0,29.67,WNW,300,2.0,9.0,72,0.00,,,0.00,weatherlink.com 1.10,2013-03-24 06:45:00,
2013-03-24 03:00:00,31.5,23.0,29.68,West,263,4.0,9.0,72,0.00,,,0.00,weatherlink.com 1.10,2013-03-24 07:00:00,
2013-03-24 03:15:00,30.6,23.0,29.68,WNW,295,1.0,4.0,74,0.00,,,0.00,weatherlink.com 1.10,2013-03-24 07:15:00,
2013-03-24 03:30:00,30.8,23.0,29.68,NW,322,0.0,4.0,73,0.00,,,0.00,weatherlink.com 1.10,2013-03-24 07:30:00,
2013-03-24 03:45:00,30.2,23.0,29.68,WNW,300,0.0,3.0,75,0.00,,,0.00,weatherlink.com 1.10,2013-03-24 07:45:00,
2013-03-24 04:00:00,30.5,23.0,29.68,NE,36,2.0,4.0,75,0.00,,,0.00,weatherlink.com 1.10,2013-03-24 08:00:00,
2013-03-24 04:15:00,29.9,23.0,29.68,NE,36,0.0,1.0,76,0.00,,,0.00,weatherlink.com 1.10,2013-03-24 08:15:00,
2013-03-24 04:30:00,30.2,23.0,29.68,WSW,254,0.0,3.0,75,0.00,,,0.00,weatherlink.com 1.10,2013-03-24 08:30:00,
2013-03-24 04:45:00,29.9,23.0,29.69,NW,323,0.0,2.0,76,0.00,,,0.00,weatherlink.com 1.10,2013-03-24 08:45:00,
2013-03-24 05:00:00,29.6,23.0,29.69,NW,313,2.0,5.0,76,0.00,,,0.00,weatherlink.com 1.10,2013-03-24 09:00:00,
2013-03-24 05:15:00,29.2,23.0,29.68,NW,323,0.0,3.0,77,0.00,,,0.00,weatherlink.com 1.10,2013-03-24 09:15:00,
2013-03-24 05:30:00,29.9,23.0,29.69,NW,311,2.0,3.0,75,0.00,,,0.00,weatherlink.com 1.10,2013-03-24 09:30:00,
2013-03-24 05:45:00,29.7,23.0,29.69,North,355,1.0,6.0,76,0.00,,,0.00,weatherlink.com 1.10,2013-03-24 09:45:00,
2013-03-24 06:01:00,30.3,23.0,29.69,NW,317,2.0,5.0,75,0.00,,,0.00,weatherlink.com 1.10,2013-03-24 10:01:00,
2013-03-24 06:16:00,30.7,23.0,29.70,WNW,287,3.0,5.0,73,0.00,,,0.00,weatherlink.com 1.10,2013-03-24 10:16:00,
2013-03-24 06:31:00,30.8,23.0,29.70,West,275,0.0,3.0,73,0.00,,,0.00,weatherlink.com 1.10,2013-03-24 10:31:00,
2013-03-24 06:46:00,29.4,23.0,29.71,WSW,253,0.0,4.0,76,0.00,,,0.00,weatherlink.com 1.10,2013-03-24 10:46:00,
2013-03-24 07:01:00,30.2,23.0,29.71,West,266,0.0,4.0,75,0.00,,,0.00,weatherlink.com 1.10,2013-03-24 11:01:00,
2013-03-24 07:31:00,29.1,23.0,29.73,SW,219,0.0,0.0,78,0.00,,,0.00,weatherlink.com 1.10,2013-03-24 11:31:00,
2013-03-24 08:01:00,32.8,24.0,29.74,NNW,348,3.0,6.0,71,0.00,,,0.00,weatherlink.com 1.10,2013-03-24 12:01:00,
2013-03-24 08:31:00,35.0,25.0,29.76,WSW,252,2.0,5.0,66,0.00,,,0.00,weatherlink.com 1.10,2013-03-24 12:31:00,
2013-03-24 08:46:00,35.5,25.0,29.77,West,270,2.0,5.0,65,0.00,,,0.00,weatherlink.com 1.10,2013-03-24 12:46:00,
2013-03-24 09:01:00,35.9,25.0,29.77,NNW,328,4.0,7.0,65,0.00,,,0.00,weatherlink.com 1.10,2013-03-24 13:01:00,
2013-03-24 09:16:00,36.4,25.0,29.77,WNW,300,1.0,6.0,64,0.00,,,0.00,weatherlink.com 1.10,2013-03-24 13:16:00,
2013-03-24 09:31:00,37.1,25.0,29.77,NNW,332,3.0,9.0,63,0.00,,,0.00,weatherlink.com 1.10,2013-03-24 13:31:00,
2013-03-24 09:46:00,37.7,25.0,29.78,NNW,348,2.0,12.0,61,0.00,,,0.00,weatherlink.com 1.10,2013-03-24 13:46:00,
2013-03-24 10:01:00,39.0,25.0,29.77,NNW,331,11.0,12.0,58,0.00,,,0.00,weatherlink.com 1.10,2013-03-24 14:01:00,
2013-03-24 10:16:00,39.6,25.0,29.77,NW,309,3.0,13.0,56,0.00,,,0.00,weatherlink.com 1.10,2013-03-24 14:16:00,
2013-03-24 10:31:00,39.2,25.0,29.77,NNW,330,6.0,13.0,56,0.00,,,0.00,weatherlink.com 1.10,2013-03-24 14:31:00,
2013-03-24 10:46:00,39.0,24.0,29.77,NNW,342,6.0,14.0,56,0.00,,,0.00,weatherlink.com 1.10,2013-03-24 14:46:00,
2013-03-24 11:01:00,39.3,24.0,29.76,NNW,348,4.0,12.0,55,0.00,,,0.00,weatherlink.com 1.10,2013-03-24 15:01:00,
2013-03-24 11:16:00,40.4,24.0,29.76,NW,315,14.0,14.0,52,0.00,,,0.00,weatherlink.com 1.10,2013-03-24 15:16:00,
2013-03-24 11:31:00,41.9,24.0,29.75,West,269,7.0,15.0,50,0.00,,,0.00,weatherlink.com 1.10,2013-03-24 15:31:00,
2013-03-24 11:47:00,42.2,24.0,29.75,NNW,340,7.0,13.0,48,0.00,,,0.00,weatherlink.com 1.10,2013-03-24 15:47:00,
2013-03-24 12:02:00,41.8,24.0,29.75,North,355,6.0,13.0,50,0.00,,,0.00,weatherlink.com 1.10,2013-03-24 16:02:00,
2013-03-24 12:17:00,43.1,24.0,29.75,North,9,5.0,17.0,47,0.00,,,0.00,weatherlink.com 1.10,2013-03-24 16:17:00,
2013-03-24 12:32:00,43.9,25.0,29.75,North,351,8.0,19.0,47,0.00,,,0.00,weatherlink.com 1.10,2013-03-24 16:32:00,
2013-03-24 12:47:00,43.8,25.0,29.75,NW,319,7.0,17.0,47,0.00,,,0.00,weatherlink.com 1.10,2013-03-24 16:47:00,
2013-03-24 13:02:00,44.4,24.0,29.75,NW,315,8.0,19.0,45,0.00,,,0.00,weatherlink.com 1.10,2013-03-24 17:02:00,
2013-03-24 13:17:00,43.3,24.0,29.75,NW,325,9.0,18.0,46,0.00,,,0.00,weatherlink.com 1.10,2013-03-24 17:17:00,
2013-03-24 13:32:00,43.3,24.0,29.75,WNW,295,7.0,15.0,46,0.00,,,0.00,weatherlink.com 1.10,2013-03-24 17:32:00,
2013-03-24 13:47:00,44.2,24.0,29.75,NNE,22,6.0,21.0,45,0.00,,,0.00,weatherlink.com 1.10,2013-03-24 17:47:00,
2013-03-24 14:17:00,44.0,24.0,29.74,NW,319,3.0,13.0,46,0.00,,,0.00,weatherlink.com 1.10,2013-03-24 18:17:00,
2013-03-24 14:32:00,43.8,24.0,29.74,NNE,32,7.0,18.0,45,0.00,,,0.00,weatherlink.com 1.10,2013-03-24 18:32:00,
2013-03-24 14:47:00,45.4,23.0,29.75,WNW,300,6.0,14.0,42,0.00,,,0.00,weatherlink.com 1.10,2013-03-24 18:47:00,
2013-03-24 15:17:00,45.0,23.0,29.75,NW,323,6.0,13.0,42,0.00,,,0.00,weatherlink.com 1.10,2013-03-24 19:17:00,
2013-03-24 15:32:00,44.5,24.0,29.75,NNW,331,5.0,13.0,45,0.00,,,0.00,weatherlink.com 1.10,2013-03-24 19:32:00,
2013-03-24 15:47:00,44.7,24.0,29.74,NW,315,6.0,13.0,44,0.00,,,0.00,weatherlink.com 1.10,2013-03-24 19:47:00,
2013-03-24 16:17:00,43.7,23.0,29.74,NW,315,4.0,12.0,45,0.00,,,0.00,weatherlink.com 1.10,2013-03-24 20:17:00,
2013-03-24 16:32:00,43.3,24.0,29.74,NNW,327,4.0,15.0,46,0.00,,,0.00,weatherlink.com 1.10,2013-03-24 20:32:00,
2013-03-24 16:47:00,43.5,24.0,29.73,WSW,246,3.0,12.0,47,0.00,,,0.00,weatherlink.com 1.10,2013-03-24 20:47:00,
2013-03-24 17:02:00,43.0,25.0,29.74,ENE,64,5.0,13.0,49,0.00,,,0.00,weatherlink.com 1.10,2013-03-24 21:02:00,
2013-03-24 17:17:00,42.7,24.0,29.74,NNW,334,4.0,13.0,48,0.00,,,0.00,weatherlink.com 1.10,2013-03-24 21:17:00,
2013-03-24 17:32:00,41.8,25.0,29.75,NNW,346,5.0,10.0,51,0.00,,,0.00,weatherlink.com 1.10,2013-03-24 21:32:00,
2013-03-24 17:47:00,42.2,25.0,29.75,NNE,24,6.0,11.0,50,0.00,,,0.00,weatherlink.com 1.10,2013-03-24 21:47:00,
2013-03-24 18:02:00,42.2,25.0,29.76,North,360,3.0,9.0,50,0.00,,,0.00,weatherlink.com 1.10,2013-03-24 22:02:00,
2013-03-24 18:17:00,41.5,24.0,29.76,NNW,346,2.0,7.0,51,0.00,,,0.00,weatherlink.com 1.10,2013-03-24 22:17:00,
2013-03-24 18:32:00,41.1,24.0,29.77,NNW,333,2.0,12.0,52,0.00,,,0.00,weatherlink.com 1.10,2013-03-24 22:32:00,
2013-03-24 18:47:00,40.6,24.0,29.76,NNW,334,2.0,7.0,51,0.00,,,0.00,weatherlink.com 1.10,2013-03-24 22:47:00,
2013-03-24 19:02:00,39.1,24.0,29.76,NNW,333,1.0,6.0,54,0.00,,,0.00,weatherlink.com 1.10,2013-03-24 23:02:00,
2013-03-24 19:17:00,37.9,24.0,29.76,NNW,340,4.0,5.0,57,0.00,,,0.00,weatherlink.com 1.10,2013-03-24 23:17:00,
2013-03-24 19:32:00,36.3,23.0,29.77,NW,314,0.0,1.0,58,0.00,,,0.00,weatherlink.com 1.10,2013-03-24 23:32:00,
2013-03-24 19:47:00,33.6,23.0,29.78,NW,314,0.0,0.0,66,0.00,,,0.00,weatherlink.com 1.10,2013-03-24 23:47:00,
2013-03-24 20:02:00,32.5,26.0,29.78,NW,314,0.0,2.0,76,0.00,,,0.00,weatherlink.com 1.10,2013-03-25 00:02:00,
2013-03-24 20:17:00,32.0,25.0,29.79,NW,314,0.0,1.0,74,0.00,,,0.00,weatherlink.com 1.10,2013-03-25 00:17:00,
2013-03-24 20:32:00,31.4,25.0,29.79,WNW,299,0.0,2.0,76,0.00,,,0.00,weatherlink.com 1.10,2013-03-25 00:32:00,
2013-03-24 20:47:00,30.8,25.0,29.79,West,280,0.0,2.0,78,0.00,,,0.00,weatherlink.com 1.10,2013-03-25 00:47:00,
2013-03-24 21:02:00,30.5,25.0,29.78,NW,323,3.0,4.0,80,0.00,,,0.00,weatherlink.com 1.10,2013-03-25 01:02:00,
2013-03-24 21:17:00,30.3,25.0,29.78,NNW,331,1.0,4.0,82,0.00,,,0.00,weatherlink.com 1.10,2013-03-25 01:17:00,
2013-03-24 21:32:00,31.9,25.0,29.78,WNW,290,1.0,4.0,76,0.00,,,0.00,weatherlink.com 1.10,2013-03-25 01:32:00,
2013-03-24 21:47:00,31.7,25.0,29.78,West,267,1.0,3.0,76,0.00,,,0.00,weatherlink.com 1.10,2013-03-25 01:47:00,
2013-03-24 22:02:00,30.1,25.0,29.78,WNW,292,0.0,3.0,81,0.00,,,0.00,weatherlink.com 1.10,2013-03-25 02:02:00,
2013-03-24 22:17:00,30.1,25.0,29.79,West,265,0.0,2.0,81,0.00,,,0.00,weatherlink.com 1.10,2013-03-25 02:17:00,
2013-03-24 22:32:00,28.8,25.0,29.79,NW,323,0.0,3.0,86,0.00,,,0.00,weatherlink.com 1.10,2013-03-25 02:32:00,
2013-03-24 22:47:00,28.8,25.0,29.79,West,280,0.0,3.0,84,0.00,,,0.00,weatherlink.com 1.10,2013-03-25 02:47:00,
2013-03-24 23:02:00,28.5,25.0,29.78,NW,304,1.0,2.0,85,0.00,,,0.00,weatherlink.com 1.10,2013-03-25 03:02:00,
2013-03-24 23:17:00,29.5,25.0,29.77,NNW,328,0.0,5.0,83,0.00,,,0.00,weatherlink.com 1.10,2013-03-25 03:17:00,
2013-03-24 23:32:00,30.3,25.0,29.77,WNW,302,0.0,3.0,81,0.00,,,0.00,weatherlink.com 1.10,2013-03-25 03:32:00,
2013-03-24 23:47:00,30.2,25.0,29.77,NW,316,1.0,4.0,81,0.00,,,0.00,weatherlink.com 1.10,2013-03-25 03:47:00,